Regional Weather Roundup
Issued by NWS

Home | Current Version | Previous Version | Graphics & Text | Print | Product List | Glossary On
Versions: 1 2 3 4 5 6 7 8 9 10 11 12 13 14 15 16 17 18 19 20 21 22 23 24 25 26 27 28 29 30 31 32 33 34 35 36 37 38 39 40 41 42 43 44 45 46 47 48 49 50
000
ASUS43 KMKX 210621
RWRWI

WISCONSIN REGIONAL WEATHER ROUNDUP
NATIONAL WEATHER SERVICE MILWAUKEE/SULLIVAN WI
100 AM CDT TUE OCT 21 2014

NOTE: "FAIR" INDICATES FEW OR NO CLOUDS BELOW 12,000 FEET WITH NO
SIGNIFICANT WEATHER AND/OR OBSTRUCTIONS TO VISIBILITY.

WIZ001-002-006>008-014>016-023>028-210700-
NORTHWEST WISCONSIN

CITY           SKY/WX    TMP DP  RH WIND       PRES   REMARKS
SUPERIOR ARPT  CLOUDY    47  39  72 E10G16    30.13R
6HR MIN TEMP:  47; 6HR MAX TEMP:  48;

ASHLAND        CLOUDY    44  38  79 NE9       30.15R
6HR MIN TEMP:  44; 6HR MAX TEMP:  49;

HAYWARD        CLOUDY    45  39  79 NE5       30.12R
6HR MIN TEMP:  45; 6HR MAX TEMP:  50;

SIREN          CLOUDY    41  37  86 CALM      30.12R
6HR MIN TEMP:  41; 6HR MAX TEMP:  50;

CUMBERLAND     CLOUDY    43  36  75 NE3       30.10S
RICE LAKE      CLOUDY    44  39  82 N5        30.12R
6HR MIN TEMP:  43; 6HR MAX TEMP:  50;

CHETEK         CLOUDY    46  40  78 N5        30.10R
6HR MIN TEMP:  41; 6HR MAX TEMP:  50;

LADYSMITH      CLOUDY    46  39  78 N5        30.12R
6HR MIN TEMP:  46; 6HR MAX TEMP:  50;

EAU CLAIRE     CLEAR     37  35  92 E3        30.09R
6HR MIN TEMP:  37; 6HR MAX TEMP:  52;

MENOMONIE      CLEAR     40  37  87 N6        30.10R
6HR MIN TEMP:  40; 6HR MAX TEMP:  51;

NEW RICHMOND   CLEAR     35  35 100 CALM      30.11R
6HR MIN TEMP:  35; 6HR MAX TEMP:  51;

OSCEOLA        CLEAR     34  34 100 CALM      30.14R
6HR MIN TEMP:  34; 6HR MAX TEMP:  51;

$$

WIZ003>005-009-010-017-018-210700-
NORTH CENTRAL WISCONSIN

CITY           SKY/WX    TMP DP  RH WIND       PRES   REMARKS
MANITOWISH WTR CLOUDY    39  38  98 CALM      30.11R
6HR MIN TEMP:  39; 6HR MAX TEMP:  43;

ARBOR VITAE    CLOUDY    42  38  88 N6        30.10S
6HR MIN TEMP:  42; 6HR MAX TEMP:  45;

WOODRUFF       CLOUDY    42  38  88 N6        30.10S
6HR MIN TEMP:  42; 6HR MAX TEMP:  45;

RHINELANDER    CLOUDY    39  35  86 N8G18     30.09R WCI  33
6HR MIN TEMP:  39; 6HR MAX TEMP:  44; 6HR PCP:  0.01;

EAGLE RIVER    CLOUDY    39  36  91 N8        30.09R WCI  33
6HR MIN TEMP:  39; 6HR MAX TEMP:  42; 6HR PCP:  0.02;

LAND O LAKES   CLOUDY    39  37  91 N7        30.10S WCI  34
6HR MIN TEMP:  39; 6HR MAX TEMP:  43;

PHILLIPS       CLOUDY    41  37  86 NE10      30.10R
6HR MIN TEMP:  41; 6HR MAX TEMP:  47;

TOMAHAWK       CLOUDY    40  36  83 N3        30.11R
6HR MIN TEMP:  40; 6HR MAX TEMP:  46;

MEDFORD        DRIZZLE   43  38  84 NE8       30.09R
6HR MIN TEMP:  43; 6HR MAX TEMP:  47;

MERRILL        MOCLDY    41  37  86 NE10      30.09R
6HR MIN TEMP:  41; 6HR MAX TEMP:  47;

$$

WIZ029-030-035-036-043>047-210700-
CENTRAL WISCONSIN

CITY           SKY/WX    TMP DP  RH WIND       PRES   REMARKS
WAUSAU         CLOUDY    44  37  76 N7        30.07R
6HR MIN TEMP:  44; 6HR MAX TEMP:  49; 6HR PCP: TRACE;

MOSINEE        CLOUDY    43  37  81 N5        30.09R
MARSHFIELD     CLOUDY    48  39  71 N8        30.07R
6HR MIN TEMP:  48; 6HR MAX TEMP:  50;

STEVENS POINT  CLOUDY    44  37  76 N6        30.08R
6HR MIN TEMP:  44; 6HR MAX TEMP:  48; 6HR PCP:  0.02;

WAUPACA        CLOUDY    48  41  74 N5        30.06S
6HR MIN TEMP:  48; 6HR MAX TEMP:  53;

WAUTOMA        CLOUDY    48  40  74 N7        30.07R
6HR MIN TEMP:  48; 6HR MAX TEMP:  52;

WISC RAPIDS    CLOUDY    48  40  73 NE10      30.09R
6HR MIN TEMP:  48; 6HR MAX TEMP:  51;

CAMP DOUGLAS   CLOUDY    46  44  93 N2        30.07R
6HR MIN TEMP:  40; 6HR MAX TEMP:  53;

$$

WIZ011>013-019>022-031-037>040-048>050-210700-
NORTHEAST WISCONSIN

CITY           SKY/WX    TMP DP  RH WIND       PRES   REMARKS
ANTIGO         CLOUDY    38  37  95 N6        30.07R WCI  33
6HR MIN TEMP:  37; 6HR MAX TEMP:  44;

SHAWANO        CLOUDY    46  39  78 N7        30.06S
6HR MIN TEMP:  46; 6HR MAX TEMP:  51;

OCONTO         CLOUDY    44  40  85 N6        30.05R
6HR MIN TEMP:  44; 6HR MAX TEMP:  48;

STURGEON BAY   CLOUDY    45  37  76 N15G23    30.03S
6HR MIN TEMP:  45; 6HR MAX TEMP:  48;

GREEN BAY      CLOUDY    45  39  79 N12       30.05R
6HR MIN TEMP:  45; 6HR MAX TEMP:  49; 6HR PCP: TRACE;

MANITOWOC      CLOUDY    47  41  80 N6        30.03S
6HR MIN TEMP:  47; 6HR MAX TEMP:  49;

APPLETON       CLOUDY    45  36  70 N8        30.05S
CLINTONVILLE   CLOUDY    45  37  76 N6        30.06S
OSHKOSH        CLOUDY    47  39  74 N13       30.04R
6HR MIN TEMP:  47; 6HR MAX TEMP:  51;

$$

WIZ032>034-041-042-053>061-210700-
SOUTHWEST WISCONSIN

CITY           SKY/WX    TMP DP  RH WIND       PRES   REMARKS
LA CROSSE      CLEAR     42  39  89 CALM      30.07R
6HR MIN TEMP:  41; 6HR MAX TEMP:  56;

SPARTA         CLEAR     35  34  95 CALM      30.08R
6HR MIN TEMP:  35; 6HR MAX TEMP:  51;

VIROQUA        CLEAR     43  38  82 CALM      30.06R
6HR MIN TEMP:  40; 6HR MAX TEMP:  49;

BOSCOBEL       CLEAR     38  36  92 CALM      30.07R FOG
6HR MIN TEMP:  38; 6HR MAX TEMP:  57;

PRAIRIE DU CHI CLEAR     41  38  87 CALM      30.06S
6HR MIN TEMP:  41; 6HR MAX TEMP:  57;

PLATTEVILLE    CLEAR     43  39  85 CALM      30.06R
6HR MIN TEMP:  43; 6HR MAX TEMP:  52;

$$

WIZ056-057-062-063-064-067-068-210700-
SOUTH CENTRAL WISCONSIN

CITY           SKY/WX    TMP DP  RH WIND       PRES   REMARKS
REEDSBURG      CLOUDY    47  39  75 N3        30.06R
6HR MIN TEMP:  47; 6HR MAX TEMP:  53;

BARABOO/DELLS  CLOUDY    48  39  70 NE6       30.05S
6HR MIN TEMP:  48; 6HR MAX TEMP:  53;

LONE ROCK      PTCLDY    44  36  73 CALM      30.06R
6HR MIN TEMP:  44; 6HR MAX TEMP:  57;

MINERAL POINT  CLEAR     43  37  81 CALM      30.05R
MADISON        CLOUDY    48  39  71 N6        30.04R
6HR MIN TEMP:  48; 6HR MAX TEMP:  53;

MIDDLETON      MOCLDY    48  39  70 N7        30.05R
6HR MIN TEMP:  46; 6HR MAX TEMP:  55;

WATERTOWN      CLOUDY    47  44  87 N6        30.03S
6HR MIN TEMP:  47; 6HR MAX TEMP:  51;

MONROE         CLEAR     46  39  76 N7        30.04R
JANESVILLE     CLOUDY    52  39  62 N6        30.02R
$$

WIZ051-052-058>065-066-070>072-210700-
SOUTHEAST WISCONSIN

CITY           SKY/WX    TMP DP  RH WIND       PRES   REMARKS
MILWAUKEE      CLOUDY    49  41  74 N9        30.01F
6HR MIN TEMP:  49; 6HR MAX TEMP:  53; 6HR PCP: TRACE;

WAUKESHA       CLOUDY    45  37  76 N7        30.03R
MILWAUKEE/TIMM CLOUDY    46  39  76 N8        30.03R
RACINE         CLOUDY    49  41  74 NW8       30.02S
6HR MIN TEMP:  49; 6HR MAX TEMP:  53;

BURLINGTON     CLOUDY    48  40  73 N6        30.02R
6HR MIN TEMP:  48; 6HR MAX TEMP:  51;

KENOSHA        CLOUDY    50  43  77 N8        30.01R
6HR MIN TEMP:  50; 6HR MAX TEMP:  53;

FOND DU LAC    CLOUDY    48  39  71 N12       30.04R
6HR MIN TEMP:  48; 6HR MAX TEMP:  51;

SHEBOYGAN      CLOUDY    45  40  82 N6        30.03R
6HR MIN TEMP:  45; 6HR MAX TEMP:  49;

WEST BEND      CLOUDY    45  37  76 N6        30.02S
JUNEAU         CLOUDY    47  41  81 N6        30.05R
6HR MIN TEMP:  46; 6HR MAX TEMP:  50;

$$

LSZ147-162-210700-
LAKE SUPERIOR

STATION/POSITION TIME  TEMP    WIND        PRES    WAVE
                       AIR SEA DIR/SP/G            HT/PER
                 (UTC) (F)     (DEG/KT/KT) (MB)    (FT/S)
W MID LAKE BUOY  0550   43 46   30/ 14/ 17 1021.5R   3/ 5
DEVILS ISLAND    0600   44      60/ 16/ 20 1021.9R
PORT WING        0500   48      70/  7/ 11 1020.3S
SAXON HARBOR     0500   47      60/ 13/ 16 1020.3R
$$

LMZ867-665-643>646-210700-
LAKE MICHIGAN



USA.gov is the U.S. government's official web portal to all federal, state and local government web resources and services.